FW8056 Weather Reports


time (UTC)temp
F
wind
direction
speed
knots
gust
knots
rain 1hr
in
rain 24hr
in
rain mn
in
humidity
%
barometer
mb
20260507014614 65 360 7.8 13.9 0.00 0.00 0.00 20 1017.4
20260507013056 66 360 7.8 13.0 0.00 0.00 0.00 19 1017.3
20260507011555 69 360 1.7 5.2 0.00 0.00 0.00 18 1017.1
20260507010109 69 360 3.5 8.7 0.00 0.00 0.00 19 1017.1
20260507004553 69 360 2.6 11.3 0.00 0.00 0.00 19 1016.8
20260507003054 70 360 3.5 9.6 0.00 0.00 0.00 18 1016.8
20260507001606 70 360 4.3 10.4 0.00 0.00 0.00 18 1016.8
20260507000055 70 360 4.3 13.0 0.00 0.00 0.00 19 1016.7
20260506234555 71 360 3.5 11.3 0.00 0.00 0.00 19 1016.7
20260506233057 72 360 2.6 10.4 0.00 0.00 0.00 20 1016.6
20260506231552 71 360 0.9 8.7 0.00 0.00 0.00 22 1016.6
20260506230103 71 360 3.5 11.3 0.00 0.00 0.00 21 1016.6
20260506224554 71 0 2.6 12.2 0.00 0.00 0.00 22 1016.6
20260506223052 72 360 3.5 8.7 0.00 0.00 0.00 22 1016.6
20260506221601 72 360 1.7 9.6 0.00 0.00 0.00 23 1016.6
20260506220057 70 360 3.5 11.3 0.00 0.00 0.00 24 1016.7
20260506214607 70 360 3.5 10.4 0.00 0.00 0.00 25 1016.9
20260506213106 71 360 4.3 15.6 0.00 0.00 0.00 25 1017.0
20260506211601 71 360 5.2 12.2 0.00 0.00 0.00 25 1017.0
20260506210055 71 360 4.3 11.3 0.00 0.00 0.00 27 1017.1
20260506204600 71 360 5.2 14.8 0.00 0.00 0.00 28 1017.1
20260506203106 69 360 4.3 10.4 0.00 0.00 0.00 26 1017.1
20260506201630 69 360 7.8 14.8 0.00 0.00 0.00 27 1017.1
20260506200054 69 360 4.3 10.4 0.00 0.00 0.00 27 1017.1
20260506194559 69 360 6.1 13.9 0.00 0.00 0.00 27 1017.1
20260506193102 69 360 6.1 13.9 0.00 0.00 0.00 26 1017.1
20260506191558 69 360 5.2 10.4 0.00 0.00 0.00 28 1017.0
20260506190054 68 360 3.5 11.3 0.00 0.00 0.00 29 1016.9
20260506184601 68 360 6.1 11.3 0.00 0.00 0.00 29 1017.2
20260506183055 66 360 3.5 13.0 0.00 0.00 0.00 32 1017.0
20260506181555 64 360 7.0 13.0 0.00 0.00 0.00 35 1017.0
20260506180056 66 360 5.2 12.2 0.00 0.00 0.00 34 1016.9
20260506174554 66 360 7.0 13.0 0.00 0.00 0.00 35 1016.9
20260506173113 65 360 4.3 11.3 0.00 0.00 0.00 37 1016.7
20260506171557 60 360 2.6 7.8 0.00 0.00 0.00 43 1016.5
20260506170057 61 360 5.2 9.6 0.00 0.00 0.00 42 1016.4
20260506164555 63 360 3.5 9.6 0.00 0.00 0.00 41 1016.2
20260506163109 61 360 2.6 7.0 0.00 0.00 0.00 43 1016.1
20260506161600 60 360 2.6 5.2 0.00 0.00 0.00 44 1015.9
20260506160057 59 360 1.7 4.3 0.00 0.00 0.00 46 1015.8
20260506154600 58 360 1.7 4.3 0.00 0.00 0.00 46 1015.9
20260506153052 57 360 0.9 3.5 0.00 0.00 0.00 47 1015.8
20260506151555 56 360 0.0 5.2 0.00 0.00 0.00 49 1015.8
20260506150053 54 0 0.9 3.5 0.00 0.00 0.00 50 1015.6
20260506144554 53 360 0.9 3.5 0.00 0.00 0.00 52 1015.5
20260506143053 50 0 0.0 2.6 0.00 0.00 0.00 56 1015.4
20260506141556 48 0 0.0 0.0 0.00 0.00 0.00 59 1015.3
20260506140100 45 0 0.0 0.0 0.00 0.00 0.00 60 1015.2
20260506134552 42 0 0.0 0.0 0.00 0.00 0.00 64 1014.7
20260506133101 38 0 0.0 0.0 0.00 0.00 0.00 66 1014.4
20260506131553 35 0 0.0 0.0 0.00 0.00 0.00 69 1014.2
20260506130054 34 0 0.0 0.0 0.00 0.00 0.00 70 1013.8
20260506124558 33 0 0.0 0.0 0.00 0.00 0.00 67 1013.5
20260506123051 35 0 0.0 0.0 0.00 0.00 0.00 69 1013.1
20260506121602 36 0 0.0 0.0 0.00 0.00 0.00 69 1013.0
20260506120108 36 0 0.0 0.0 0.00 0.00 0.00 68 1013.0
20260506114610 37 0 0.0 0.0 0.00 0.00 0.00 65 1012.7
20260506113054 37 0 0.0 2.6 0.00 0.00 0.00 63 1012.6
20260506111555 39 0 0.0 0.0 0.00 0.00 0.00 63 1012.6
20260506110054 40 0 0.0 2.6 0.00 0.00 0.00 62 1012.6
20260506104555 40 360 1.7 3.5 0.00 0.00 0.00 63 1012.4
20260506103052 41 360 0.9 3.5 0.00 0.00 0.00 60 1012.3
20260506101557 41 0 0.0 1.7 0.00 0.00 0.00 57 1012.4
20260506100057 42 360 0.9 2.6 0.00 0.00 0.00 53 1011.9
20260506094600 44 360 2.6 7.0 0.00 0.00 0.00 51 1011.8
20260506093113 45 360 7.0 9.6 0.00 0.00 0.00 50 1011.6
20260506091558 43 360 2.6 5.2 0.00 0.00 0.00 53 1011.4
20260506090121 44 360 3.5 5.2 0.00 0.00 0.00 52 1011.6
20260506084556 43 360 1.7 3.5 0.00 0.00 0.00 51 1011.8
20260506083101 42 360 0.9 2.6 0.00 0.00 0.00 50 1011.6
20260506081554 43 360 0.0 1.7 0.00 0.00 0.00 48 1011.6
20260506080107 43 360 0.0 1.7 0.00 0.00 0.00 48 1011.7
20260506073107 44 360 0.9 1.7 0.00 0.00 0.00 46 1011.4
20260506071557 47 360 0.0 1.7 0.00 0.00 0.00 43 1011.4
20260506061603 52 360 0.9 3.5 0.00 0.00 0.00 37 1010.7
20260506044604 57 360 6.1 9.6 0.00 0.00 0.00 37 1010.4
20260506043056 58 360 5.2 11.3 0.00 0.00 0.00 36 1010.2
20260506041608 56 360 2.6 5.2 0.00 0.00 0.00 38 1009.9
20260506034615 57 360 0.9 3.5 0.00 0.00 0.00 39 1009.5
20260506033057 57 360 0.0 2.6 0.00 0.00 0.00 38 1009.3
20260506031600 58 0 0.9 4.3 0.00 0.00 0.00 37 1009.0
20260506030055 58 360 0.0 3.5 0.00 0.00 0.00 38 1008.9
20260506024608 58 360 0.9 7.0 0.00 0.00 0.00 37 1008.7
20260506023056 59 360 3.5 7.8 0.00 0.00 0.00 36 1008.6
20260506021554 59 360 3.5 8.7 0.00 0.00 0.00 35 1008.3
20260506020122 59 360 1.7 8.7 0.00 0.00 0.00 35 1008.1